Regional Weather Roundup
Issued by NWS Newport/Morehead, NC

Current Version | Previous Version | Text Only | Print | Product List | Glossary On
Versions: 1 2 3 4 5 6 7 8 9 10 11 12 13 14 15 16 17 18 19 20 21 22 23 24 25 26 27 28 29 30 31 32 33 34 35 36 37 38 39 40 41 42 43 44 45 46 47 48 49 50
000
ASUS42 KMHX 201810
RWRMHX
WEATHER ROUNDUP FOR EASTERN NORTH CAROLINA
NATIONAL WEATHER SERVICE NEWPORT/MOREHEAD CITY NC
200 PM EDT WED AUG 20 2014

NOTE: "FAIR" INDICATES FEW OR NO CLOUDS BELOW 12,000 FEET
WITH NO SIGNIFICANT WEATHER AND/OR OBSTRUCTIONS TO VISIBILITY

NCZ015>017-031-032-045>047-102-103-201900-
NORTH COAST

CITY           SKY/WX    TMP DP  RH WIND       PRES   REMARKS
EDENTON        CLOUDY    81  71  71 CALM      29.98F
ELIZABETH CITY SUNNY     84  70  62 NE8       29.98S
KITTY HAWK     CLEAR     81  72  72 NE8       29.97S
MANTEO         CLOUDY    81  72  74 NE9       29.98S

$$

NCZ045>047-081-094-103-104-201900-
CENTRAL COAST

CITY           SKY/WX    TMP DP  RH WIND       PRES   REMARKS
FRISCO         MOSUNNY   83  74  74 VRB6      29.97R
SWANQUARTER      N/A     81 N/A N/A SE5       29.94S

$$

NCZ095-097-098-100-101-201900-
SOUTHERN COAST

CITY           SKY/WX    TMP DP  RH WIND       PRES   REMARKS
BEAUFORT       SUNNY     87  73  62 NW6       29.98S
CEDAR ISLAND     N/A     82 N/A N/A N2        30.03R
JACKSONVILLE   PTSUNNY   88  73  61 VRB7      29.97F
NEWPORT        NOT AVBL
PINEY ISLAND   MOCLDY    85  75  72 NE9       29.97S
WILMINGTON     LGT RAIN  83  75  77 S16       29.97F


$$

NCZ011>013-027>030-043-044-078>080-089-090>093-098-201900-
COASTAL PLAIN

CITY           SKY/WX    TMP DP  RH WIND       PRES   REMARKS
AHOSKIE        SUNNY     82  70  66 CALM      29.98F
CLINTON        SUNNY     90  75  62 N6        29.97F HX 100
ELIZABETHTOWN  MOSUNNY   86  73  65 CALM      29.97S
GOLDSBORO      MOSUNNY   86  76  71 VRB3      29.96F
GREENVILLE     MOSUNNY   86  72  62 N5        30.00F
HAVELOCK       MOSUNNY   87  71  58 N3        29.99S
KENANSVILLE    MOSUNNY   87  70  57 NE3       29.98F
KINSTON        MOSUNNY   86  72  62 NE5       29.99F
NEW BERN       MOSUNNY   87  72  60 N8        29.99S
RICHLANDS      PTSUNNY   86  72  62 NW3       29.98F
ROANOKE RAPIDS NOT AVBL
ROCKY MOUNT    MOSUNNY   86  71  60 VRB3      29.98F
WASHINGTON     MOSUNNY   84  71  65 N5        29.98F
WHITEVILLE     MOSUNNY   90  72  55 S5        29.97S

$$

AMZ130-135-150-152-154-156-158-170-250-252-270-ANZ085-086-088-633-658-670-201900-
MARINE OBSERVATIONS

STATION/POSITION TIME  TEMP    WIND        PRES    WAVE   SWELL
                       AIR SEA DIR/SP/G            HT/PER HT/PER
                 (UTC) (F)     (DEG/KT/KT) (MB)    (FT/S) (FT/S)
CHESAPEAKE LIGHT 1700   76      30/  8/  8 1016.2
BUOY 44014       1800   77 78   40/ 10/ 12 1014.6    3/ 5   3/ 5
DUCK             1800   77 79  360/  8/  9 1014.6
2E DUCK          1800                        N/A     3/ 6
OREGON INLET     1800   80 81   30/  8/ 12 1015.1
BUOY 44095       1800      80                N/A     3/ 5
20E OREGON INLET NOT AVBL
HATTERAS CG      1800   81 82   20/  8/ 10 1015.3
DIAMOND BUOY     1800   78     310/  8/ 10 1014.4    2/ 7   2/ 7
CAPE LOOKOUT     1700   81      90/  5/  6 1015.1
BEAUFORT LAB     1800   85 82  320/  4/  6 1014.7
30 SE NEW RIVER  1800   81 84   CALM  /  2 1015.0    3/ 6   3/ 6
5 SE WRIGHTSVILL 1700   78 83  140/  8/ 10   N/A
BUOY 41002       1705   79 81  250/ 12/ 14 1017.5    6/ 7   5/ 7
BUOY 41004       1800   82 84  230/ 10/ 12 1015.5    3/ 6   2/ 6

$$



USA.gov is the U.S. government's official web portal to all federal, state and local government web resources and services.